Weather History for Ogallala, NE

Change the Weather History Date:

Monday, February 18, 2013

  Actual Average Record
Temperature  
Mean Temperature 28 °F -  
Max Temperature 39 °F 44 °F 72 °F (1970)
Min Temperature 17 °F 16 °F -18 °F (1993)
Degree Days  
Heating Degree Days 37    
Moisture  
Dew Point 21 °F    
Average Humidity 66    
Maximum Humidity 88    
Minimum Humidity 41    
Precipitation  
Precipitation 0.00 in - - ()
Sea Level Pressure  
Sea Level Pressure 29.93 in    
Wind  
Wind Speed 16 mph (NNW)    
Max Wind Speed 28 mph    
Max Gust Speed 33 mph    
Visibility 10 miles    
Events      
Averages and records for this station are not official NWS values.
T = Trace of Precipitation, MM = Missing Value Source: NWS Daily Summary

Daily Weather History Graph

Daily Weather History Graph

Search for Another Location

Airport:

Trip Planner

Search our weather history database for the weather conditions in past years. The results will help you decide how hot, cold, wet, or windy it might be!

Date:

Astronomy

Feb. 18, 2013 Rise Set
Actual Time 6:37 AM MST 5:25 PM MST
Civil Twilight 6:09 AM MST 5:53 PM MST
Nautical Twilight 5:36 AM MST 6:25 PM MST
Astronomical Twilight 5:05 AM MST 6:57 PM MST
Moon 11:11 AM MST (2/18) 1:20 AM MST (2/18)
Length of Visible Light 11h 44m
Length of Day
10h 48m
First Quarter, 59% of the Moon is Illuminated
Feb 18
First Quarter
Feb 25
Full
Mar 4
Last Quarter
Mar 11
New
Mar 19
First Quarter

Hourly Weather History & Observations

Time (MST) Temp. Windchill Dew Point Humidity Pressure Visibility Wind Dir Wind Speed Gust Speed Precip Events Conditions
12:15 AM 36.7 °F 27.6 °F 27.5 °F 69% 29.71 in 10.0 mi NNW 15.0 mph - N/A   Mostly Cloudy
12:35 AM 36.5 °F 27.0 °F 27.7 °F 70% 29.71 in 10.0 mi NNW 16.1 mph 20.7 mph N/A   Overcast
12:55 AM 35.6 °F 25.5 °F 27.3 °F 72% 29.72 in 10.0 mi NNW 17.3 mph - N/A   Scattered Clouds
1:15 AM 35.1 °F 23.5 °F 26.6 °F 71% 29.71 in 10.0 mi NNW 21.9 mph 28.8 mph N/A   Clear
1:35 AM 34.9 °F 23.9 °F 26.6 °F 72% 29.73 in 10.0 mi NNW 19.6 mph 26.5 mph N/A   Clear
1:55 AM 34.5 °F 23.4 °F 26.6 °F 73% 29.73 in 10.0 mi NNW 19.6 mph 23.0 mph N/A   Clear
2:15 AM 33.8 °F 22.5 °F 26.2 °F 74% 29.74 in 10.0 mi NNW 19.6 mph - N/A   Clear
2:35 AM 33.1 °F 21.5 °F 26.1 °F 75% 29.74 in 10.0 mi NNW 19.6 mph 25.3 mph N/A   Clear
2:55 AM 32.2 °F 20.7 °F 25.7 °F 77% 29.75 in 10.0 mi NNW 18.4 mph 23.0 mph N/A   Clear
3:15 AM 32.0 °F 21.2 °F 25.3 °F 76% 29.75 in 10.0 mi NNW 16.1 mph - N/A   Clear
3:35 AM 31.1 °F 20.5 °F 25.0 °F 78% 29.76 in 10.0 mi NNW 15.0 mph 21.9 mph N/A   Clear
3:55 AM 30.9 °F 19.4 °F 24.8 °F 78% 29.77 in 10.0 mi NNW 17.3 mph - N/A   Clear
4:15 AM 30.4 °F 19.1 °F 24.8 °F 80% 29.77 in 10.0 mi NNW 16.1 mph - N/A   Clear
4:35 AM 30.6 °F 20.2 °F 24.8 °F 79% 29.79 in 10.0 mi NNW 13.8 mph 20.7 mph N/A   Clear
4:55 AM 30.7 °F 20.0 °F 25.0 °F 79% 29.79 in 10.0 mi NW 15.0 mph - N/A   Clear
5:15 AM 30.7 °F 19.6 °F 24.8 °F 79% 29.80 in 10.0 mi NNW 16.1 mph - N/A   Clear
5:35 AM 31.1 °F 20.5 °F 24.8 °F 77% 29.81 in 10.0 mi NW 15.0 mph 21.9 mph N/A   Scattered Clouds
5:55 AM 31.1 °F 19.7 °F 25.3 °F 79% 29.82 in 10.0 mi NNW 17.3 mph - N/A   Mostly Cloudy
6:15 AM 32.0 °F 21.2 °F 25.2 °F 76% 29.83 in 10.0 mi NW 16.1 mph - N/A   Overcast
6:35 AM 31.5 °F 20.9 °F 24.8 °F 76% 29.84 in 10.0 mi NW 15.0 mph - N/A   Overcast
6:55 AM 31.5 °F 20.5 °F 24.6 °F 76% 29.86 in 10.0 mi NNW 16.1 mph - N/A   Overcast
7:15 AM 30.2 °F 21.9 °F 23.9 °F 77% 29.87 in 10.0 mi NW 9.2 mph 16.1 mph N/A   Overcast
7:35 AM 29.7 °F 19.1 °F 23.4 °F 77% 29.88 in 10.0 mi NW 13.8 mph 17.3 mph N/A   Scattered Clouds
7:55 AM 32.0 °F 20.1 °F 23.4 °F 70% 29.88 in 10.0 mi NNW 19.6 mph - N/A   Clear
8:15 AM 32.9 °F 21.0 °F 23.0 °F 67% 29.89 in 10.0 mi NNW 20.7 mph 28.8 mph N/A   Clear
8:35 AM 33.8 °F 22.2 °F 23.4 °F 66% 29.90 in 10.0 mi NNW 20.7 mph 29.9 mph N/A   Clear
8:55 AM 34.7 °F 22.8 °F 23.7 °F 64% 29.90 in 10.0 mi North 23.0 mph 27.6 mph N/A   Clear
9:35 AM 35.2 °F 22.5 °F 23.4 °F 62% 29.92 in 10.0 mi NNW 27.6 mph 31.1 mph N/A   Scattered Clouds
9:55 AM 36.1 °F 24.7 °F 22.3 °F 57% 29.93 in 10.0 mi NNW 23.0 mph 33.4 mph N/A   Scattered Clouds
10:15 AM 36.9 °F 24.9 °F 22.1 °F 55% 29.94 in 10.0 mi NW 26.5 mph 29.9 mph N/A   Scattered Clouds
10:35 AM 36.9 °F 25.1 °F 22.1 °F 55% 29.94 in 10.0 mi NNW 25.3 mph 33.4 mph N/A   Scattered Clouds
10:55 AM 38.3 °F 28.1 °F 22.1 °F 52% 29.94 in 10.0 mi NW 20.7 mph 27.6 mph N/A   Clear
11:15 AM 37.6 °F 26.1 °F 21.4 °F 52% 29.95 in 10.0 mi NNW 25.3 mph 28.8 mph N/A   Scattered Clouds
11:35 AM 38.7 °F 27.5 °F 21.2 °F 50% 29.95 in 10.0 mi North 25.3 mph 28.8 mph N/A   Scattered Clouds
11:55 AM 38.7 °F 29.1 °F 20.3 °F 48% 29.95 in 10.0 mi NNW 18.4 mph 29.9 mph N/A   Scattered Clouds
12:15 PM 39.4 °F 29.5 °F 19.9 °F 46% 29.96 in 10.0 mi NNW 20.7 mph 28.8 mph N/A   Clear
12:35 PM 38.3 °F 29.0 °F 20.3 °F 48% 29.96 in 10.0 mi NNW 17.3 mph 27.6 mph N/A   Scattered Clouds
12:55 PM 38.1 °F 28.8 °F 20.1 °F 48% 29.96 in 10.0 mi North 17.3 mph 25.3 mph N/A   Mostly Cloudy
1:15 PM 38.7 °F 29.1 °F 19.6 °F 46% 29.95 in 10.0 mi NNW 18.4 mph 24.2 mph N/A   Scattered Clouds
1:35 PM 39.4 °F 30.1 °F 19.6 °F 45% 29.95 in 10.0 mi North 18.4 mph 24.2 mph N/A   Scattered Clouds
1:55 PM 38.7 °F 29.5 °F 18.7 °F 45% 29.96 in 10.0 mi NNW 17.3 mph 20.7 mph N/A   Clear
2:15 PM 39.4 °F 30.7 °F 18.5 °F 43% 29.96 in 10.0 mi NNW 16.1 mph 23.0 mph N/A   Clear
2:35 PM 39.2 °F 30.8 °F 17.4 °F 41% 29.96 in 10.0 mi NNW 15.0 mph - N/A   Clear
2:55 PM 38.3 °F 30.5 °F 18.0 °F 44% 29.96 in 10.0 mi NNW 12.7 mph 16.1 mph N/A   Clear
3:15 PM 38.3 °F 28.7 °F 17.1 °F 42% 29.97 in 10.0 mi NNW 18.4 mph 24.2 mph N/A   Clear
3:35 PM 38.3 °F 28.7 °F 16.2 °F 41% 29.96 in 10.0 mi NNW 18.4 mph - N/A   Clear
3:55 PM 37.6 °F 29.1 °F 16.7 °F 43% 29.97 in 10.0 mi NNW 13.8 mph - N/A   Scattered Clouds
4:15 PM 36.9 °F 28.2 °F 17.4 °F 45% 29.98 in 10.0 mi NNW 13.8 mph - N/A   Scattered Clouds
4:35 PM 36.1 °F 26.9 °F 17.6 °F 47% 29.99 in 10.0 mi NNW 15.0 mph - N/A   Mostly Cloudy
4:55 PM 36.0 °F 27.1 °F 16.2 °F 45% 29.99 in 10.0 mi NW 13.8 mph - N/A   Overcast
5:15 PM 35.1 °F 27.9 °F 15.8 °F 45% 30.00 in 10.0 mi NW 9.2 mph - N/A   Scattered Clouds
5:35 PM 30.9 °F 24.3 °F 15.3 °F 52% 30.00 in 10.0 mi NW 6.9 mph - N/A   Clear
5:55 PM 28.2 °F 21.0 °F 15.3 °F 58% 30.01 in 10.0 mi NW 6.9 mph - N/A   Clear
6:15 PM 25.2 °F 16.5 °F 14.7 °F 65% 30.02 in 10.0 mi NW 8.1 mph - N/A   Clear
6:35 PM 28.4 °F 19.1 °F 17.1 °F 63% 30.03 in 10.0 mi NNW 10.4 mph - N/A   Mostly Cloudy
6:55 PM 32.2 °F 20.7 °F 19.0 °F 58% 30.04 in 10.0 mi NNW 18.4 mph 21.9 mph N/A   Mostly Cloudy
7:15 PM 30.2 °F 21.9 °F 19.6 °F 65% 30.05 in 10.0 mi North 9.2 mph - N/A   Scattered Clouds
7:35 PM 27.0 °F 20.5 °F 18.9 °F 72% 30.06 in 10.0 mi NNW 5.8 mph - N/A   Clear
7:55 PM 25.3 °F 18.5 °F 18.5 °F 75% 30.07 in 10.0 mi North 5.8 mph - N/A   Clear
8:15 PM 24.6 °F 17.7 °F 18.5 °F 78% 30.08 in 10.0 mi NW 5.8 mph - N/A   Clear
8:35 PM 24.4 °F 16.5 °F 18.9 °F 79% 30.08 in 10.0 mi NNW 6.9 mph - N/A   Clear
8:55 PM 23.9 °F 15.0 °F 19.0 °F 82% 30.09 in 10.0 mi NNW 8.1 mph - N/A   Clear
9:15 PM 22.6 °F 13.4 °F 18.5 °F 84% 30.09 in 10.0 mi NNW 8.1 mph - N/A   Clear
9:35 PM 20.3 °F 11.5 °F 16.7 °F 86% 30.10 in 10.0 mi NW 6.9 mph - N/A   Clear
9:55 PM 21.4 °F 10.4 °F 17.8 °F 86% 30.10 in 10.0 mi NNW 10.4 mph - N/A   Clear
10:15 PM 20.8 °F 12.1 °F 16.7 °F 84% 30.11 in 10.0 mi NNW 6.9 mph - N/A   Clear
10:35 PM 18.7 °F - 15.4 °F 87% 30.11 in 10.0 mi Calm Calm - N/A   Clear
10:55 PM 18.9 °F 13.7 °F 15.6 °F 87% 30.11 in 10.0 mi West 3.5 mph - N/A   Clear
11:35 PM 17.4 °F 10.4 °F 14.2 °F 87% 30.12 in 10.0 mi WNW 4.6 mph - N/A   Clear
11:55 PM 17.1 °F - 14.2 °F 88% 30.12 in 10.0 mi Calm Calm - N/A   Clear